CAPE
0 13 29 16 75 62 88 57 23 0 0 1 0 1 0 0 0 0 0 0 0 0 0 0 0 0 0 0 0 650 1434 1921 1866 1811 1760 1565 1590 1608 1419 1484 1488 1311 1059 473
0 0 0 0 48 67 71 75 55 51 6 47 6 5 0 0 0 0 0 0 0 0 0 0 0 0 0 0 0 485 1294 1764 1928 1770 1761 1704 1594 1547 1449 1456 1525 1219 1158 491
4 0 0 0 0 3 10 32 32 84 17 8 8 14 0 0 0 0 0 0 0 0 0 0 0 0 0 0 0 741 1160 1548 1938 1840 1776 1704 1703 1655 1382 1390 1491 1388 1210 457
2 0 0 2 0 0 4 10 41 34 84 57 44 14 0 0 0 0 0 0 0 0 0 0 0 0 0 0 0 547 1121 1431 1943 1855 1794 1885 1881 1750 1756 1705 1537 1436 1246 554
0 0 0 16 1 0 0 11 20 20 6 2 0 7 0 1 0 0 0 0 0 0 0 0 0 0 0 0 0 370 1137 1456 1836 1895 1798 1899 1724 1546 1560 1820 1603 1557 1346 714
35 0 0 34 0 13 0 3 19 33 24 4 0 2 0 0 0 0 0 0 0 0 0 0 0 0 0 0 0 160 1260 1418 1736 1953 1812 1833 1703 1681 1726 1892 1665 1534 1332 1149
0 14 10 0 0 2 4 8 25 66 4 18 5 2 0 0 0 0 0 0 0 0 0 0 0 0 0 0 0 0 1183 1036 1464 1977 1918 1910 1428 1431 1556 1750 1746 1616 1486 1166
0 0 0 0 0 3 14 2 5 58 0 10 40 14 6 0 0 0 0 0 0 0 0 0 0 0 0 0 0 0 0 0 0 313 1081 1269 1196 1233 1242 1283 1122 1465 1292 1394
4 0 0 0 0 8 20 15 0 4 0 11 20 0 1 0 4 0 0 0 0 0 0 0 0 0 0 0 0 0 0 0 0 0 1 1 107 739 1209 1139 1075 930 635 1089
0 2 0 0 0 0 12 8 13 113 1 5 1 0 5 9 5 9 6 13 12 2 0 0 0 0 0 0 0 0 0 0 0 0 1 1 1 1 1 5 237 374 666 784
2 5 0 0 10 5 0 2 1 1 0 2 5 0 9 12 9 8 9 21 6 7 4 0 0 0 0 0 0 0 0 0 0 0 0 0 0 1 1 2 1 2 0 0
6 1 0 0 17 32 26 7 0 0 0 0 0 1 0 4 10 11 11 10 14 15 14 14 0 0 0 0 0 0 0 0 0 0 0 0 0 0 0 0 0 0 0 0
17 1 0 0 0 0 0 3 7 0 0 0 0 0 5 3 3 5 11 9 8 4 6 13 8 0 0 0 0 0 0 0 0 0 0 0 0 0 0 0 0 0 0 0
19 24 4 0 0 17 1 0 0 0 0 0 1 1 3 0 1 2 7 10 11 8 6 7 14 11 0 0 0 0 0 0 0 0 0 0 0 0 0 0 0 0 0 0
0 0 0 0 0 0 0 0 0 3 2 1 1 11 7 1 2 7 11 7 6 9 0 1 3 1 8 0 0 0 0 0 0 0 0 0 0 0 0 0 0 0 0 0
0 0 0 0 0 0 0 0 0 0 18 0 3 17 11 11 10 11 5 6 0 4 0 0 0 0 0 0 0 0 0 0 0 0 0 0 0 0 0 0 0 0 0 0
0 0 0 0 0 0 0 2 0 0 0 1 0 10 2 4 7 8 0 0 0 0 0 0 0 0 0 0 0 0 0 0 0 0 0 0 0 0 0 0 0 0 0 0
0 0 0 0 0 0 10 4 1 1 7 0 0 0 0 0 0 0 0 0 0 0 0 0 0 0 0 0 0 0 0 0 0 0 0 0 0 0 0 0 0 0 0 0
0 0 0 0 0 0 21 15 15 22 15 7 0 0 0 0 0 0 0 0 0 0 0 0 0 0 0 0 0 0 0 0 0 0 0 0 0 0 0 0 0 0 0 0
0 0 0 0 0 1 0 1 0 0 1 18 0 0 0 0 0 0 0 0 0 0 0 0 0 0 0 0 0 0 0 0 0 0 0 0 0 0 0 0 0 0 0 0
0 0 0 0 0 0 0 5 0 3 1 2 0 0 0 0 0 0 0 0 0 0 0 0 0 0 0 0 0 0 0 0 0 0 0 0 0 0 0 0 0 0 0 0
0 0 0 0 0 0 2 0 1 1 0 0 0 0 0 0 0 0 0 0 0 0 0 0 0 0 0 0 0 0 0 0 0 0 0 0 0 0 0 0 0 0 0 0
0 0 0 1 0 0 1 1 4 0 0 0 0 0 0 0 0 0 0 0 0 0 0 0 0 0 0 0 0 0 0 0 0 0 0 0 0 0 0 0 0 0 0 0
0 0 0 0 0 0 0 0 0 0 0 0 0 0 0 0 0 0 0 0 0 0 0 0 0 1 1 1 0 0 0 0 0 0 0 0 0 0 0 0 0 0 0 0
0 0 0 0 0 0 0 0 0 0 0 0 0 0 0 0 0 0 0 0 0 0 0 0 0 0 0 0 0 0 0 0 2 1 0 0 0 0 0 0 0 0 0 0
0 0 0 0 0 0 0 0 0 0 0 0 0 0 0 0 0 0 0 0 1 0 0 0 2 0 0 0 0 0 0 0 0 1 2 1 0 0 0 0 0 0 0 0
CIN
-0 -2 -0 -0 -1 -0 -0 -1 -13 -0 -0 -8 -0 -6 -0 -0 -0 -0 -0 -0 -0 -0 -0 -0 -0 -0 -0 -0 -0 -284 -247 -166 -132 -105 -81 -96 -99 -81 -106 -120 -129 -142 -177 -307
-0 -0 -0 -0 -8 -1 -1 -0 -0 -1 -1 -1 -4 -5 -0 -0 -0 -0 -0 -0 -0 -0 -0 -0 -0 -0 -0 -0 -0 -369 -298 -194 -145 -110 -110 -120 -141 -126 -157 -131 -90 -135 -145 -319
-0 -0 -0 -0 -0 -0 -0 -4 -0 -0 -2 -10 -4 -1 -0 -0 -0 -0 -0 -0 -0 -0 -0 -0 -0 -0 -0 -0 -0 -364 -318 -243 -162 -148 -137 -103 -77 -68 -64 -72 -72 -96 -150 -323
-0 -0 -0 -2 -0 -0 -0 -0 -31 -1 -0 -0 -1 -24 -0 -0 -0 -0 -0 -0 -0 -0 -0 -0 -0 -0 -0 -0 -0 -394 -337 -280 -198 -162 -135 -96 -74 -52 -50 -91 -98 -97 -110 -280
-0 -25 -0 -0 -0 -0 -0 -1 -0 -0 -0 -0 -0 -0 -0 -0 -0 -0 -0 -0 -0 -0 -0 -0 -0 -0 -0 -0 -0 -408 -282 -293 -229 -173 -158 -118 -85 -92 -86 -96 -93 -68 -80 -161
-39 -0 -0 -38 -0 -0 -0 -0 -1 -0 -0 -0 -0 -0 -0 -0 -0 -0 -0 -0 -0 -0 -0 -0 -0 -0 -0 -0 -0 -432 -233 -225 -147 -127 -139 -111 -103 -82 -54 -55 -49 -62 -60 -52
-0 -27 -48 -0 -0 -0 -0 -0 -0 -0 -2 -4 -2 -4 -0 -0 -0 -0 -0 -0 -0 -0 -0 -0 -0 -0 -0 -0 -0 -0 -188 -205 -157 -62 -66 -69 -130 -111 -103 -79 -40 -11 -21 -34
-0 -0 -0 -8 -0 -0 -0 -0 -3 -2 -2 -68 -51 -15 -0 -0 -0 -0 -0 -0 -0 -0 -0 -0 -0 -0 -0 -0 -0 -0 -0 -0 -63 -299 -138 -106 -119 -145 -144 -129 -99 -41 -11 -4
-10 -0 -0 -0 -0 -0 -0 -0 -1 -2 -0 -0 -3 -22 -0 -0 -0 -0 -0 -0 -0 -0 -0 -0 -0 -0 -0 -0 -0 -0 -0 -0 -0 -0 -0 -0 -315 -169 -157 -167 -133 -130 -26 -40
-0 -2 -0 -0 -0 -0 -0 -0 -17 -0 -3 -2 -4 -0 -0 -0 -0 -0 -0 -0 -0 -0 -0 -0 -0 -0 -0 -0 -0 -0 -0 -0 -0 -0 -0 -0 -0 -0 -323 -202 -196 -122 -57 -16
-0 -0 -0 -0 -0 -0 -0 -0 -0 -9 -0 -4 -1 -0 -0 -0 -0 -0 -0 -0 -0 -0 -0 -0 -0 -0 -0 -0 -0 -0 -0 -0 -0 -0 -0 -0 -0 -0 -0 -0 -0 -0 -0 -0
-0 -0 -0 -0 -39 -1 -8 -16 -0 -0 -0 -0 -0 -0 -0 -0 -0 -0 -0 -0 -0 -0 -0 -0 -0 -0 -0 -0 -0 -0 -0 -0 -0 -0 -0 -0 -0 -0 -0 -0 -0 -0 -0 -0
-1 -12 -0 -0 -21 -0 -0 -0 -10 -0 -0 -0 -0 -0 -0 -0 -0 -0 -0 -0 -0 -0 -0 -0 -0 -0 -0 -0 -0 -0 -0 -0 -0 -0 -0 -0 -0 -0 -0 -0 -0 -0 -0 -0
-3 -9 -13 -1 -0 -0 -0 -0 -0 -0 -0 -0 -0 -0 -0 -0 -0 -0 -0 -0 -0 -0 -0 -0 -0 -0 -0 -0 -0 -0 -0 -0 -0 -0 -0 -0 -0 -0 -0 -0 -0 -0 -0 -0
-0 -0 -0 -0 -0 -0 -0 -0 -0 -8 -1 -0 -0 -0 -0 -0 -0 -0 -0 -0 -0 -0 -0 -0 -0 -0 -0 -0 -0 -0 -0 -0 -0 -0 -0 -0 -0 -0 -0 -0 -0 -0 -0 -0
-0 -0 -0 -0 -0 -0 -0 -0 -0 -0 -1 -0 -0 -0 -0 -0 -0 -0 -0 -0 -0 -7 -0 -0 -0 -0 -0 -0 -0 -0 -0 -0 -0 -0 -0 -0 -0 -0 -0 -0 -0 -0 -0 -0
-0 -0 -0 -0 -0 -0 -0 -0 -0 -0 -0 -1 -0 -0 -0 -0 -0 -0 -0 -0 -0 -0 -0 -0 -0 -0 -0 -0 -0 -0 -0 -0 -0 -0 -0 -0 -0 -0 -0 -0 -0 -0 -0 -0
-0 -0 -0 -0 -0 -0 -0 -0 -1 -0 -0 -0 -0 -0 -0 -0 -0 -0 -0 -0 -0 -0 -0 -0 -0 -0 -0 -0 -0 -0 -0 -0 -0 -0 -0 -0 -0 -0 -0 -0 -0 -0 -0 -0
-0 -0 -0 -0 -0 -0 -0 -0 -0 -0 -0 -0 -0 -0 -0 -0 -0 -0 -0 -0 -0 -0 -0 -0 -0 -0 -0 -0 -0 -0 -0 -0 -0 -0 -0 -0 -0 -0 -0 -0 -0 -0 -0 -0
-0 -0 -0 -0 -0 -0 -0 -0 -0 -0 -0 -0 -0 -0 -0 -0 -0 -0 -0 -0 -0 -0 -0 -0 -0 -0 -0 -0 -0 -0 -0 -0 -0 -0 -0 -0 -0 -0 -0 -0 -0 -0 -0 -0
-0 -0 -0 -0 -0 -0 -0 -0 -0 -0 -0 -2 -0 -0 -0 -0 -0 -0 -0 -0 -0 -0 -0 -0 -0 -0 -0 -0 -0 -0 -0 -0 -0 -0 -0 -0 -0 -0 -0 -0 -0 -0 -0 -0
-0 -0 -0 -0 -0 -0 -0 -0 -0 -0 -14 -0 -0 -0 -0 -0 -0 -0 -0 -0 -0 -0 -0 -0 -0 -0 -0 -0 -0 -0 -0 -0 -0 -0 -0 -0 -0 -0 -0 -0 -0 -0 -0 -0
-0 -0 -0 -0 -0 -0 -0 -0 -0 -5 -0 -0 -0 -0 -0 -0 -0 -0 -0 -0 -0 -0 -0 -0 -0 -0 -0 -0 -0 -0 -0 -0 -0 -0 -0 -0 -0 -0 -0 -0 -0 -0 -0 -0
-0 -0 -0 -0 -0 -0 -0 -0 -0 -0 -0 -0 -0 -0 -0 -0 -0 -0 -0 -0 -0 -0 -0 -0 -0 -0 -0 -0 -0 -0 -0 -0 -0 -0 -0 -0 -0 -0 -0 -0 -0 -0 -0 -0
-0 -0 -0 -0 -0 -0 -0 -0 -0 -0 -0 -0 -0 -0 -0 -0 -0 -0 -0 -0 -0 -0 -0 -0 -0 -0 -0 -0 -0 -0 -0 -0 -0 -0 -0 -0 -0 -0 -0 -0 -0 -0 -0 -0
-0 -0 -0 -0 -0 -0 -0 -0 -0 -0 -0 -0 -0 -0 -0 -0 -0 -0 -0 -0 -0 -0 -0 -0 -0 -0 -0 -0 -0 -0 -0 -0 -0 -0 -0 -0 -0 -0 -0 -0 -0 -0 -0 -0
Wind_Speed
11 15 27 27 27 28 32 30 31 31 20 19 37 25 38 26 22 26 22 19 17 16 10 14 14 15 18 17 14 21 21 22 17 15 14 12 12 12 11 13 18 18 16 18
7 25 24 28 30 32 34 40 40 28 27 21 24 28 36 28 29 27 26 27 21 21 18 21 20 18 19 17 13 19 23 22 20 16 15 12 13 13 14 12 15 18 18 19
17 21 22 27 32 28 29 36 33 34 22 28 27 33 39 33 27 26 25 25 24 23 20 22 20 16 16 14 13 19 22 22 23 22 15 12 11 10 9 12 12 16 20 17
12 11 17 25 35 33 35 29 27 36 33 31 25 23 35 24 24 24 24 23 24 23 22 22 22 16 10 14 14 19 22 22 22 22 18 20 15 14 11 13 12 14 18 18
12 18 20 23 29 28 40 22 21 19 22 15 13 17 26 6 23 23 19 20 26 28 23 23 19 10 3 2 10 13 18 20 22 22 22 18 18 14 12 13 18 15 16 18
17 19 14 7 22 31 28 27 22 22 14 17 17 4 16 13 12 13 12 6 6 7 5 7 3 8 7 6 3 9 15 15 15 19 20 22 21 18 13 14 12 12 12 12
19 6 7 8 19 10 16 14 11 14 11 14 12 12 17 7 17 11 14 13 13 14 13 13 12 11 11 11 10 7 11 10 12 16 17 18 16 17 18 15 12 12 10 11
5 16 3 3 4 9 15 20 12 13 5 3 7 8 2 8 15 19 16 16 16 17 14 15 14 13 14 13 14 16 13 12 9 7 10 11 14 11 11 13 9 13 10 9
7 9 9 17 9 2 6 10 17 18 24 8 3 3 6 18 14 15 17 17 18 16 14 16 15 15 14 15 15 14 14 13 12 9 6 5 5 7 12 17 14 10 8 10
5 11 4 9 4 8 8 7 7 8 6 9 5 3 5 8 12 11 18 17 14 13 14 14 14 15 14 13 13 14 15 14 12 11 10 10 10 5 5 3 6 6 9 12
6 4 10 9 4 9 5 6 7 2 4 4 3 2 6 8 8 10 13 14 13 15 12 12 13 12 14 14 14 13 15 14 14 13 11 11 11 12 10 9 8 7 9 7
5 4 7 9 4 10 4 8 4 6 3 3 2 3 3 4 7 7 12 15 20 17 16 12 13 13 15 14 14 13 14 14 12 11 11 11 10 9 10 9 8 8 8 6
8 5 8 10 4 2 5 16 9 3 4 4 4 2 2 5 8 8 12 17 16 15 17 15 15 14 14 12 13 13 11 12 11 10 11 10 10 10 9 7 6 4 7 6
13 4 4 2 11 8 16 17 13 2 3 5 5 3 5 5 4 2 9 13 13 14 15 11 11 13 12 13 10 13 13 11 10 10 10 10 8 7 7 6 6 6 5 4
6 4 5 15 7 11 11 14 8 10 7 5 6 5 6 4 3 5 9 14 12 14 12 10 5 7 3 7 9 10 7 9 10 10 8 8 8 5 6 6 6 5 5 5
4 6 6 5 9 15 14 18 11 11 7 7 7 8 5 7 2 4 8 11 11 8 8 9 5 7 7 5 4 6 5 6 4 3 7 7 6 8 5 6 6 5 4 2
3 3 6 5 14 8 7 16 17 13 18 3 5 6 9 17 17 14 14 15 15 12 8 8 6 2 5 5 6 8 0 3 2 7 3 5 4 7 5 2 3 2 1 3
3 2 2 5 9 7 4 12 12 16 21 16 17 14 17 17 15 14 11 13 13 11 10 10 9 10 10 7 8 6 7 8 7 5 6 6 4 7 6 5 4 2 2 4
7 2 2 2 3 3 4 8 9 9 11 15 14 13 10 10 13 11 9 10 8 8 6 6 6 6 6 10 8 8 8 7 8 7 7 6 6 7 6 6 6 4 3 3
5 4 3 4 2 4 1 14 14 5 6 11 11 8 8 4 7 2 6 5 7 7 6 8 7 5 8 7 7 6 5 4 6 7 8 8 6 5 7 6 7 4 4 5
5 4 3 2 1 4 7 19 9 3 1 6 1 5 9 6 2 4 8 11 8 7 9 8 7 5 5 5 5 4 4 4 6 8 8 8 7 6 6 6 3 4 5 4
3 2 2 2 4 6 13 6 6 3 4 4 4 4 5 5 7 8 9 9 10 9 8 7 7 6 6 5 3 5 6 5 6 7 8 9 9 7 7 5 6 3 4 2
4 0 3 2 3 4 5 2 3 2 2 2 1 3 3 5 4 3 3 4 5 6 8 9 9 9 7 8 7 11 10 10 10 10 8 7 7 7 8 7 8 7 5 4
4 1 2 2 2 3 7 6 4 3 2 3 5 5 5 5 6 7 7 8 9 9 10 9 9 10 11 11 10 9 11 11 11 13 12 9 7 8 6 6 6 7 7 6
4 4 1 2 4 4 10 6 3 1 4 5 5 5 6 6 5 5 7 8 8 11 11 12 12 13 14 14 14 13 13 13 12 13 14 15 12 12 11 10 10 9 10 9
1 2 3 5 6 4 5 4 4 3 3 4 3 3 5 5 5 6 6 6 11 12 12 12 12 12 15 14 15 15 15 14 14 13 11 10 10 11 11 12 11 16 18 20
Wind_Direction
290 291 242 258 256 252 250 256 256 248 251 229 250 239 251 243 238 247 254 238 241 245 236 249 248 247 250 239 214 197 194 191 186 185 183 186 188 184 182 191 189 185 180 178
280 250 275 293 270 256 253 254 254 260 260 232 249 250 253 247 241 241 245 253 248 252 248 255 254 248 244 235 197 188 192 186 188 186 187 187 183 187 186 188 188 186 187 182
255 275 277 267 274 284 271 250 260 257 255 252 246 256 255 249 248 246 246 249 250 247 247 253 252 237 231 222 208 187 191 186 187 187 184 185 187 185 188 186 187 192 188 180
273 255 271 265 261 254 260 268 279 262 256 246 225 261 253 256 248 244 247 238 248 246 245 248 252 248 210 223 205 189 187 185 187 184 183 183 181 185 189 184 187 187 187 180
270 295 291 295 267 259 255 248 274 274 271 269 263 249 260 312 241 239 235 237 239 241 239 239 244 231 95 256 186 181 192 185 185 183 185 184 186 191 185 189 187 184 185 183
259 289 276 254 291 259 253 256 253 282 269 263 246 201 288 270 242 247 224 3 358 7 346 246 244 79 48 19 133 156 177 192 190 187 188 187 187 182 182 185 184 182 188 181
312 292 243 271 311 276 232 222 245 246 225 253 208 204 234 38 32 69 81 56 52 36 51 59 59 62 56 45 55 69 149 159 170 185 188 193 194 183 184 181 179 174 184 189
285 312 279 290 261 290 272 209 210 236 224 283 191 202 91 316 90 86 66 67 59 55 47 59 57 58 59 60 63 74 73 78 77 140 180 194 194 177 176 176 196 179 176 191
290 272 285 274 269 259 333 218 222 241 275 278 233 214 77 62 63 70 76 66 59 56 53 52 52 49 46 49 55 60 65 63 60 60 84 106 172 195 184 178 169 158 186 188
270 286 267 287 335 281 251 309 191 182 225 239 263 39 40 59 94 59 76 61 54 48 45 53 48 52 50 46 45 51 57 55 56 55 55 66 62 81 113 116 140 157 193 204
258 246 288 306 2 323 337 5 319 189 125 196 130 38 353 47 38 64 67 70 61 50 34 42 54 50 55 52 49 47 50 48 47 44 48 54 56 60 74 82 76 85 75 68
312 274 274 276 315 293 293 332 309 346 6 84 118 92 346 33 47 70 74 61 57 50 33 13 52 48 50 45 44 45 45 48 44 41 46 50 50 54 72 72 76 78 74 62
344 309 320 350 297 345 336 342 329 303 331 45 104 100 15 5 61 2 76 70 68 60 47 24 39 37 38 37 41 38 33 36 34 44 43 37 53 57 48 49 51 75 104 99
331 297 165 250 277 312 323 332 343 32 14 354 61 134 86 41 60 54 95 86 89 74 66 30 8 39 37 35 32 40 33 25 19 31 33 27 17 48 62 72 55 31 27 64
1 297 316 311 300 325 308 332 344 31 36 40 21 77 105 124 182 179 123 98 90 94 93 79 29 62 149 19 50 20 57 41 17 11 40 26 356 24 54 51 64 75 37 20
341 284 321 298 325 352 17 1 7 33 11 68 36 74 82 131 156 36 17 132 122 123 118 105 88 57 58 13 149 142 85 325 50 97 10 3 16 330 24 47 38 35 13 20
258 295 337 299 334 337 26 13 32 42 24 1 39 54 71 65 68 68 57 52 62 69 60 58 55 353 29 49 8 353 130 171 266 344 338 336 341 307 338 354 65 46 328 349
258 10 350 299 350 30 21 360 23 51 30 45 74 77 76 84 72 61 58 69 62 62 46 36 32 35 34 21 24 20 5 27 32 24 9 333 339 297 312 305 274 224 181 206
208 73 323 76 305 258 5 7 359 6 33 24 44 48 55 75 68 39 18 44 56 59 50 40 34 24 27 24 21 31 29 25 32 9 3 355 357 346 325 325 305 301 276 215
78 32 121 359 64 357 312 326 329 336 43 4 8 10 17 17 66 316 343 39 51 48 37 27 26 29 31 9 13 17 14 16 27 1 335 334 340 330 334 340 319 284 237 246
338 358 91 360 4 309 334 325 313 39 265 320 5 351 36 52 46 332 15 20 20 24 21 24 33 39 19 346 337 334 351 5 338 319 312 318 314 307 310 314 320 304 302 285
310 4 309 3 27 355 343 355 50 236 288 9 12 24 47 50 33 22 20 17 19 15 5 4 353 344 333 332 336 341 326 313 314 317 315 310 309 314 312 304 300 296 263 261
21 79 354 44 203 260 260 173 269 206 349 317 350 17 63 62 27 349 323 354 359 1 354 351 344 336 338 343 0 335 330 331 329 324 316 297 288 295 293 296 291 289 240 227
313 18 77 122 288 295 316 350 52 98 206 49 54 58 42 25 2 0 3 2 1 2 358 354 352 346 340 340 337 323 321 324 323 318 312 301 284 283 263 254 258 264 261 244
221 347 25 302 276 272 257 243 197 148 74 84 46 32 20 15 6 6 358 355 351 353 352 347 342 338 332 329 323 320 315 313 304 299 302 299 293 290 283 270 268 264 260 245
261 222 157 228 234 199 266 108 116 113 84 77 65 22 15 45 12 1 346 342 341 340 340 336 332 324 321 323 319 314 312 308 305 295 292 284 279 279 282 278 272 246 245 253